EW2868 Sai Kung current weather conditions

sailwx.info

Wind from 123 at 2 knots gusting 8

Air temperature 23.3° C
Dewpoint 19.3° C

Last reported at 2018-Nov-15 11:36 UTC.
Time now 2018-Nov-15 22:47 UTC

Location: N 22°21' E 114°14'.
View on Google Maps.

See reports from other nearby stations

  
Tides and Currents Weather Stations Pressure Air Temp Water Temp Dewpoint Dewpoint Depression Visibility Wind Speed Wind Dir Waves Ship Positions
date/time (UTC)wind fromknots sea level pressurealtimeterstation pressurevisibilityair tempwater tempwave heightnotes
2018-Nov-15 11:36 123 2 gusting 8 23.3
2018-Nov-15 11:26 053 0 gusting 4 23.3
2018-Nov-15 11:16 124 3 gusting 7 23.3
2018-Nov-15 11:06 102 1 gusting 6 23.3
2018-Nov-15 10:56 084 2 gusting 6 23.3
2018-Nov-15 10:46 117 23.3
2018-Nov-15 10:36 053 2 gusting 8 23.3
2018-Nov-15 10:26 153 1 gusting 6 23.3
2018-Nov-15 10:16 094 1 gusting 8 23.3
2018-Nov-15 10:06 067 2 gusting 3 23.3
2018-Nov-15 09:56 344 0 gusting 3 22.8
2018-Nov-15 09:46 136 1 gusting 5 22.8
2018-Nov-15 09:36 092 2 gusting 6 22.8
2018-Nov-15 09:26 150 4 gusting 6 22.8
2018-Nov-15 09:16 140 3 gusting 6 22.8
2018-Nov-15 09:06 069 2 gusting 5 22.8
2018-Nov-15 08:56 132 0 gusting 6 22.8
2018-Nov-15 08:46 140 0 gusting 7 22.8
2018-Nov-15 08:36 186 4 gusting 6 22.8
2018-Nov-15 08:26 138 1 gusting 6 22.8
2018-Nov-15 08:16 169 3 gusting 6 22.8
2018-Nov-15 08:06 111 5 gusting 8 22.8
2018-Nov-15 07:56 136 3 gusting 6 22.8
2018-Nov-15 07:46 108 0 gusting 6 22.8
2018-Nov-15 07:36 201 1 gusting 6 22.8
2018-Nov-15 07:26 086 2 gusting 6 22.8
2018-Nov-15 07:16 065 2 gusting 7 22.8
2018-Nov-15 07:06 056 1 gusting 3 22.8
2018-Nov-15 06:56 059 4 gusting 8 22.8
2018-Nov-15 06:46 130 0 gusting 11 22.8
2018-Nov-15 06:36 107 1 gusting 6 22.8
2018-Nov-15 06:26 171 0 gusting 8 22.8
2018-Nov-15 06:16 153 2 gusting 6 22.8
2018-Nov-15 06:06 140 6 gusting 9 23.3
2018-Nov-15 05:56 113 2 gusting 6 23.3
2018-Nov-15 05:46 148 3 gusting 6 22.8
2018-Nov-15 05:36 107 1 gusting 7 23.3
2018-Nov-15 05:26 127 4 gusting 10 23.3
2018-Nov-15 05:16 080 1 gusting 7 23.3
2018-Nov-15 05:06 092 2 gusting 6 23.3
2018-Nov-15 04:56 046 1 gusting 10 22.8
2018-Nov-15 04:46 111 1 gusting 10 22.8
2018-Nov-15 04:36 106 0 gusting 8 22.8
2018-Nov-15 04:26 059 0 gusting 9 22.8
2018-Nov-15 04:16 141 0 gusting 7 22.8
2018-Nov-15 04:06 130 7 gusting 9 22.8
2018-Nov-15 03:56 042 1 gusting 8 22.8
2018-Nov-15 03:46 107 1 gusting 7 22.8
2018-Nov-15 03:36 117 2 gusting 9 22.8
2018-Nov-15 03:26 106 1 gusting 10 22.8
2018-Nov-15 03:16 103 1 gusting 9 22.8
2018-Nov-15 03:06 080 4 gusting 9 23.3
2018-Nov-15 02:56 115 5 gusting 8 22.8
2018-Nov-15 02:46 142 4 gusting 10 22.8
2018-Nov-15 02:36 123 6 gusting 8 22.8
2018-Nov-15 02:26 137 2 gusting 12 22.8
2018-Nov-15 02:16 079 1 gusting 9 22.8
2018-Nov-15 02:06 138 3 gusting 7 22.8
2018-Nov-15 01:56 098 3 gusting 10 22.8
2018-Nov-15 01:46 180 7 gusting 11 22.8
2018-Nov-15 01:36 119 8 gusting 8 22.8
2018-Nov-15 01:26 059 1 gusting 7 22.8
2018-Nov-15 01:16 063 1 gusting 12 22.8
2018-Nov-15 01:06 074 3 gusting 12 22.8
2018-Nov-15 00:56 094 0 gusting 7 22.8
2018-Nov-15 00:46 159 3 gusting 8 22.8
2018-Nov-15 00:36 086 3 gusting 10 22.8
2018-Nov-15 00:26 155 2 gusting 6 22.8
2018-Nov-15 00:16 087 2 gusting 11 22.8
2018-Nov-15 00:06 140 7 gusting 12 22.8
2018-Nov-14 23:56 138 4 gusting 10 22.8
2018-Nov-14 23:46 012 22.8
2018-Nov-14 23:36 108 2 gusting 10 22.8
2018-Nov-14 23:26 129 6 gusting 9 22.8
2018-Nov-14 23:16 059 0 gusting 9 22.2
2018-Nov-14 23:06 164 3 gusting 7 22.2
2018-Nov-14 22:56 101 6 gusting 8 22.8
2018-Nov-14 22:46 115 0 gusting 10 22.8
2018-Nov-14 22:36 123 6 gusting 9 22.2
2018-Nov-14 22:26 138 6 gusting 8 22.2
2018-Nov-14 22:16 121 0 gusting 8 22.2
2018-Nov-14 22:06 061 0 gusting 6 22.2
2018-Nov-14 21:56 097 22.2
2018-Nov-14 21:46 077 6 gusting 6 22.8
2018-Nov-14 21:36 158 0 gusting 6 22.8
2018-Nov-14 21:26 092 1 gusting 3 22.8
2018-Nov-14 21:16 163 1 gusting 6 22.8
2018-Nov-14 21:06 150 1 gusting 6 22.8
2018-Nov-14 20:56 187 0 gusting 5 22.8
2018-Nov-14 20:46 081 0 gusting 3 22.8
2018-Nov-14 20:36 130 1 gusting 5 22.8
2018-Nov-14 20:26 119 3 gusting 6 22.8
2018-Nov-14 20:16 140 22.8
2018-Nov-14 20:06 135 0 gusting 6 22.8
2018-Nov-14 19:56 123 0 gusting 3 22.8
2018-Nov-14 19:46 109 5 gusting 6 22.8
2018-Nov-14 19:36 170 4 gusting 6 22.8
2018-Nov-14 19:26 107 0 gusting 7 22.8
2018-Nov-14 19:16 142 0 gusting 9 22.8
2018-Nov-14 19:06 145 0 gusting 4 22.8
2018-Nov-14 18:56 092 2 gusting 6 22.8
2018-Nov-14 18:46 108 1 gusting 6 22.8
2018-Nov-14 18:36 032 1 gusting 6 22.8
2018-Nov-14 18:26 108 22.8
2018-Nov-14 18:16 111 2 gusting 9 22.8
2018-Nov-14 18:06 144 0 gusting 6 22.8
2018-Nov-14 17:56 096 2 gusting 6 22.8
2018-Nov-14 17:46 094 1 gusting 9 22.8
2018-Nov-14 17:36 085 7 gusting 10 23.3
2018-Nov-14 17:26 158 1 gusting 10 23.3
2018-Nov-14 17:16 059 2 gusting 9 23.3
2018-Nov-14 17:06 050 0 gusting 10 23.3
2018-Nov-14 16:56 123 0 gusting 10 23.3
2018-Nov-14 16:46 090 3 gusting 9 23.3
2018-Nov-14 16:36 070 6 gusting 8 23.3
2018-Nov-14 16:26 086 7 gusting 10 23.3
2018-Nov-14 16:16 039 3 gusting 8 23.3
2018-Nov-14 16:06 098 3 gusting 6 23.3
2018-Nov-14 15:56 101 0 gusting 9 23.3
2018-Nov-14 15:46 072 4 gusting 10 23.3
2018-Nov-14 15:36 055 0 gusting 4 23.3
2018-Nov-14 15:26 078 2 gusting 5 23.3
2018-Nov-14 15:16 102 2 gusting 9 23.3
2018-Nov-14 15:06 084 23.3
2018-Nov-14 14:56 070 2 gusting 8 23.3
2018-Nov-14 14:46 080 23.3
2018-Nov-14 14:36 098 0 gusting 7 23.3
2018-Nov-14 14:26 069 4 gusting 8 23.3
2018-Nov-14 14:16 088 23.3
2018-Nov-14 14:06 101 3 gusting 8 23.3
2018-Nov-14 13:56 121 6 gusting 7 23.3
2018-Nov-14 13:46 115 6 gusting 8 23.3
2018-Nov-14 13:36 151 3 gusting 9 23.3
2018-Nov-14 13:26 142 6 gusting 9 23.3
2018-Nov-14 13:16 145 3 gusting 8 23.3
2018-Nov-14 13:06 083 0 gusting 8 23.3
2018-Nov-14 12:56 103 6 gusting 10 23.3
2018-Nov-14 12:46 095 6 gusting 11 23.3
2018-Nov-14 12:36 144 2 gusting 7 23.3
2018-Nov-14 12:26 055 1 gusting 8 23.3
2018-Nov-14 12:16 123 4 gusting 6 23.3
2018-Nov-14 12:06 063 2 gusting 8 23.3
2018-Nov-14 11:56 070 0 gusting 6 23.3
2018-Nov-14 11:46 164 23.3
2018-Nov-14 11:36 076 1 gusting 6 23.3
2018-Nov-14 11:26 111 2 gusting 6 23.3
2018-Nov-14 11:16 130 0 gusting 4 22.8
2018-Nov-14 11:06 144 3 gusting 3 22.8
2018-Nov-14 10:56 103 23.3
2018-Nov-14 10:46 098 1 gusting 6 23.3
2018-Nov-14 10:36 137 2 gusting 6 22.8
2018-Nov-14 10:26 134 2 gusting 4 22.8
2018-Nov-14 10:16 134 6 gusting 6 22.8
2018-Nov-14 10:06 082 1 gusting 7 22.8
2018-Nov-14 09:56 103 0 gusting 6 22.8
2018-Nov-14 09:46 161 0 gusting 4 22.8
2018-Nov-14 09:36 161 0 gusting 5 22.8
2018-Nov-14 09:26 148 1 gusting 4 22.8
2018-Nov-14 09:16 122 1 gusting 5 23.3
2018-Nov-14 09:06 135 2 gusting 4 23.3
2018-Nov-14 08:56 148 0 gusting 6 23.3
2018-Nov-14 08:46 144 1 gusting 4 23.3
2018-Nov-14 08:36 115 3 gusting 6 23.3
2018-Nov-14 08:26 161 1 gusting 3 23.3
2018-Nov-14 08:16 154 2 gusting 7 23.3
2018-Nov-14 08:06 123 2 gusting 6 23.3
2018-Nov-14 07:56 138 3 gusting 7 23.3
2018-Nov-14 07:46 167 3 gusting 7 23.3
2018-Nov-14 07:36 134 4 gusting 6 23.3
2018-Nov-14 07:26 117 3 gusting 7 23.3
2018-Nov-14 07:16 189 0 gusting 6 23.3
2018-Nov-14 07:06 173 2 gusting 6 23.3
2018-Nov-14 06:56 225 6 gusting 7 23.3
2018-Nov-14 06:46 176 1 gusting 6 23.3
2018-Nov-14 06:36 234 0 gusting 6 23.3
2018-Nov-14 06:26 148 1 gusting 6 23.9
2018-Nov-14 06:16 159 0 gusting 8 23.9
2018-Nov-14 06:06 148 4 gusting 9 23.9
2018-Nov-14 05:56 186 1 gusting 6 23.9
2018-Nov-14 05:46 202 4 gusting 10 23.9
2018-Nov-14 05:36 186 2 gusting 10 25.0
2018-Nov-14 05:26 167 7 gusting 10 24.4
2018-Nov-14 05:16 145 4 gusting 8 24.4
2018-Nov-14 05:06 140 1 gusting 9 25.0
2018-Nov-14 04:56 169 4 gusting 10 25.0
2018-Nov-14 04:46 104 1 gusting 9 24.4
2018-Nov-14 04:36 074 4 gusting 8 24.4
2018-Nov-14 04:26 131 2 gusting 8 25.0
2018-Nov-14 04:16 071 1 gusting 8 25.0
2018-Nov-14 04:06 076 1 gusting 6 24.4
2018-Nov-14 03:56 101 7 gusting 9 24.4
2018-Nov-14 03:46 067 3 gusting 11 23.9
2018-Nov-14 03:36 144 3 gusting 9 24.4
2018-Nov-14 03:26 071 3 gusting 10 23.9
2018-Nov-14 03:16 092 7 gusting 10 23.3
2018-Nov-14 03:06 107 5 gusting 10 23.3
2018-Nov-14 02:56 096 6 gusting 9 23.3
2018-Nov-14 02:46 127 3 gusting 10 23.3
2018-Nov-14 02:36 076 6 gusting 10 23.9
2018-Nov-14 02:26 052 4 gusting 8 23.3
2018-Nov-14 02:16 116 3 gusting 9 23.3
2018-Nov-14 02:06 119 2 gusting 10 23.3
2018-Nov-14 01:56 077 1 gusting 9 23.3
2018-Nov-14 01:46 148 3 gusting 4 23.3
2018-Nov-14 01:36 146 2 gusting 8 23.3
2018-Nov-14 01:26 065 1 gusting 6 23.3
2018-Nov-14 01:16 054 1 gusting 11 22.8
2018-Nov-14 01:06 078 6 gusting 10 22.8
2018-Nov-14 00:56 043 3 gusting 6 22.8
2018-Nov-14 00:46 125 1 gusting 7 22.8
2018-Nov-14 00:36 107 1 gusting 6 22.8
2018-Nov-14 00:26 050 1 gusting 4 22.8
2018-Nov-14 00:16 104 3 gusting 5 22.8
2018-Nov-14 00:06 124 0 gusting 6 22.8
2018-Nov-13 23:56 036 22.8
2018-Nov-13 23:46 064 22.2
2018-Nov-13 23:36 066 2 gusting 4 22.2
2018-Nov-13 23:26 096 22.2
2018-Nov-13 23:16 096 2 gusting 4 22.2
2018-Nov-13 23:06 042 2 gusting 6 22.2
2018-Nov-13 22:56 066 4 gusting 8 22.2
2018-Nov-13 22:46 029 1 gusting 6 22.2
2018-Nov-13 22:36 069 3 gusting 7 22.2
2018-Nov-13 22:26 069 5 gusting 8 22.2
2018-Nov-13 22:16 049 2 gusting 9 22.2
2018-Nov-13 22:06 123 1 gusting 4 22.8